This demonstration page uses our WeatherBlox Daily Observations layout. Learn more.

Hourly Observations for June 18, 2020

Temp ( °F °C ) Dew Point ( °F °C ) Humidity (%) Winds ( mph kmh ) Pressure ( in mb ) Visibility ( mi km ) Precip ( " mm )
12:54 am 00:54 Clear 79 26.1 64 17.8 60 60 SSE 20 31 29.82 1010 10 16.0934 0 0
1:54 am 01:54 Clear 78 25.6 64 17.8 62 62 S 17 28 29.81 1010 10 16.0934 0 0
2:54 am 02:54 Clear 76 24.4 64 17.8 67 67 S 16 26 29.83 1010 10 16.0934 0 0
3:54 am 03:54 Clear 76 24.4 64 17.8 67 67 S 16 26 29.83 1010 10 16.0934 0 0
4:54 am 04:54 Clear 75 23.9 64 17.8 69 69 S 14 22 29.83 1010 10 16.0934 0 0
5:54 am 05:54 Clear 74 23.3 64 17.8 71 71 S 16 26 29.81 1010 10 16.0934 0 0
6:54 am 06:54 Sunny 74 23.3 64 17.8 71 71 S 16 26 29.81 1010 10 16.0934 0 0
7:54 am 07:54 Mostly Cloudy 76 24.4 65 18.3 69 69 S 13 20 29.83 1010 10 16.0934 0 0
8:54 am 08:54 Sunny 79 26.1 65 18.3 62 62 S 15 24 29.83 1010 10 16.0934 0 0
9:54 am 09:54 Sunny 82 27.8 65 18.3 56 56 S 15 24 29.83 1010 10 16.0934 0 0
10:54 am 10:54 Mostly Cloudy 84 28.9 65 18.3 53 53 S 17 28 29.83 1010 10 16.0934 0 0
11:54 am 11:54 Mostly Cloudy 84 28.9 65 18.3 53 53 S 15 24 29.85 1011 10 16.0934 0 0
12:14 pm 12:14 Mostly Cloudy with Nearby Thunderstorms 84 28.9 65 18.3 53 53 S 13 20 29.83 1010 10 16.0934 0 0
12:38 pm 12:38 Cloudy with Heavy Thunderstorms 76 24.4 69 20.6 79 79 W 23 37 29.87 1011 2.5 4.02335 0.001 0.001
12:42 pm 12:42 Cloudy with Heavy Thunderstorms 73 22.8 69 20.6 87 87 W 14 22 29.88 1012 0.75 1.207005 0.03 0.762
12:54 pm 12:54 Cloudy with Light Thunderstorms 73 22.8 67 19.4 81 81 NNW 6 9 29.87 1011 2.5 4.02335 0.33 8.382
1:01 pm 13:01 Cloudy with Light Thunderstorms 74 23.3 68 20 82 82 N 6 9 29.85 1011 10 16.0934 0.01 0.254
1:42 pm 13:42 Mostly Cloudy with Nearby Thunderstorms 75 23.9 67 19.4 76 76 SSE 10 17 29.85 1011 10 16.0934 0.01 0.254
1:54 pm 13:54 Mostly Cloudy with Nearby Thunderstorms 76 24.4 68 20 77 77 SSE 13 20 29.87 1012 10 16.0934 0.01 0.254
2:02 pm 14:02 Mostly Cloudy with Light Rain 75 23.9 69 20.6 82 82 S 12 19 29.85 1011 10 16.0934 0.001 0.001
2:54 pm 14:54 Mostly Cloudy 78 25.6 69 20.6 74 74 Calm 29.85 1011 10 16.0934 0.001 0.001
3:14 pm 15:14 Mostly Cloudy with Nearby Thunderstorms 79 26.1 69 20.6 72 72 ESE 5 7 29.82 1010 10 16.0934 0.001 0.001
3:22 pm 15:22 Mostly Cloudy with Light Thunderstorms 79 26.1 69 20.6 72 72 S 7 11 29.83 1010 7 11.26538 0.001 0.001
3:38 pm 15:38 Cloudy with Nearby Thunderstorms 79 26.1 71 21.7 77 77 SE 7 11 29.82 1010 10 16.0934 0.03 0.762
3:54 pm 15:54 Cloudy with Nearby Thunderstorms 76 24.4 70 21.1 82 82 S 17 28 29.85 1011 10 16.0934 0.03 0.762
4:25 pm 16:25 Mostly Cloudy 75 23.9 69 20.6 82 82 SE 12 19 29.82 1010 10 16.0934 0.01 0.254
4:34 pm 16:34 Mostly Cloudy with Nearby Thunderstorms 75 23.9 68 20 79 79 SE 13 20 29.83 1010 10 16.0934 0.01 0.254
4:54 pm 16:54 Cloudy with Nearby Thunderstorms 75 23.9 67 19.4 76 76 SE 15 24 29.84 1011 10 16.0934 0.01 0.254
5:37 pm 17:37 Cloudy with Nearby Thunderstorms 73 22.8 65 18.3 76 76 VRB 3 6 29.86 1011 1.5 2.41401 0.05 1.27
5:49 pm 17:49 Cloudy with Nearby Thunderstorms 72 22 66 19 83 83 N 9 15 29.89 1012 4 6.43736 0.24 6.096
5:54 pm 17:54 Cloudy with Nearby Thunderstorms 72 22.2 68 20 87 87 NNW 15 24 29.89 1012 7 11.26538 0.24 6.096
6:22 pm 18:22 Cloudy with Nearby Thunderstorms 70 21.1 67 19.4 90 90 N 13 20 29.88 1012 5 8.0467 0.07 1.778
6:44 pm 18:44 Cloudy with Light Rain 69 20.6 66 18.9 90 90 N 13 20 29.89 1012 8 12.87472 0.07 1.778
6:54 pm 18:54 Mostly Cloudy 70 21.1 66 18.9 87 87 N 14 22 29.89 1012 8 12.87472 0.07 1.778
7:54 pm 19:54 Mostly Cloudy 67 19.4 63 17.2 87 87 N 20 31 29.88 1012 10 16.0934 0.001 0.001
8:18 pm 20:18 Mostly Cloudy 67 19.4 62 16.7 84 84 NNE 14 22 29.91 1013 10 16.0934 0 0
8:28 pm 20:28 Cloudy with Nearby Thunderstorms 67 19.4 62 16.7 84 84 NNW 14 22 29.94 1014 10 16.0934 0 0
8:37 pm 20:37 Cloudy with Thunderstorms 67 19.4 62 16.7 84 84 NNW 12 19 29.96 1015 10 16.0934 0 0
8:54 pm 20:54 Cloudy with Light Thunderstorms 66 18.9 62 16.7 87 87 NNE 10 17 29.96 1014 5 8.0467 0.05 1.27
8:59 pm 20:59 Cloudy with Nearby Thunderstorms 66 18.9 62 16.7 87 87 NNE 8 13 29.96 1015 8 12.87472 0.001 0.001
9:23 pm 21:23 Cloudy with Light Rain 65 18.3 61 16.1 87 87 N 9 15 29.96 1015 10 16.0934 0.02 0.508
9:54 pm 21:54 Cloudy with Light Rain 64 17.8 60 15.6 87 87 N 10 17 29.97 1015 10 16.0934 0.02 0.508
10:41 pm 22:41 Cloudy with Light Thunderstorms 63 17.2 59 15 87 87 NNE 12 19 30 1016 7 11.26538 0.1 2.54
10:54 pm 22:54 Cloudy with Thunderstorms 63 17.2 59 15 87 87 NNE 10 17 29.98 1015 5 8.0467 0.22 5.588
11:12 pm 23:12 Cloudy with Light Rain 63 17.2 59 15 87 87 N 10 17 29.99 1016 10 16.0934 0.02 0.508
11:54 pm 23:54 Cloudy with Light Rain 63 17.2 59 15 87 87 NE 3 6 30 1016 9 14.48406 0.04 1.016

Powered by AerisWeather